COSMOS 1275 DEB, 12773

Orbit data source: Space-Track

COSMOS 1275 DEB, 12773 is space debris in LEO originally from a launch on Thu, 04 Jun 1981 UTC launched from the Plesetsk Missile And Space Complex (PKMTR). Debris objects in space refer to the collection of defunct objects orbiting the Earth. Examples of debris include non-operational satellites, rocket bodies, and fragments generated from explosions, collisions, or faulty payload assembly.

Loading next visibility...
Identifier
12773, 1981-053DS
Orbit
LEO
Country
Flag of CISCIS
Related business
Manufacturer
Unknown
Mission
Spacecraft
Bus & Motor
Unknown
Mass
Unknown
Launch date (UTC)
1981-06-04 (45 years ago)
Launch vehicle
Unknown
Launch site
Plesetsk Missile And Space Complex (PKMTR)
Object type
Payload
Rocket body
Debris
Shape & HBR
Unknown shape, 0.1 m
Radar Cross Section
Small (<0.1 m²)

Expand to show TLE details & history
Last TLE update: 12 hours ago

TLE from 12 hours ago
0 COSMOS 1275 DEB
1 12773U 81053DS  26119.13278675  .00018636  00000-0  28337-2 0  9994
2 12773  82.9195 349.3507 0083348  15.8260 344.5524 14.71543439269752
Epoch: 2026-04-29T03:11Z
TLE epoch observation values (Epoch: 2026-04-29T03:11:12.775Z)
Latitude
0.00002°
Longitude
84.44934°
Altitude
602.69 km
Speed
7.588 km/s
True Right ascension
23h 17m 24s
True Declination
0° 00' 00"
Sunlit
Object was in daylight at epoch
Visualization orbit readout
Latitude
Unknown
Longitude
Unknown
Altitude
Unknown
Speed
Unknown
Apparent Right ascension
Unknown
Apparent Declination
Unknown
Sunlit
N/A
Visualization observer readout
Local Sidereal Time
23:09:03
Azimuth
Unknown
Elevation
Unknown
Doppler factor
Unknown
Orbital elements
Apogee altitude
711.767 km
Perigee altitude
594.558 km
Semi-major axis
7,031.299 km
Eccentricity
0.00833
Inclination
82.9195°
RAAN
349.3507°
Arg. of periapsis
15.826°
True anomaly
344.29542°
Mean anomaly
344.5524°
Eccentric anomaly
344.42417°
Mean motion
3.6812 °/min
Orbital period
97.79 mins
BSTAR
0.0028337
Loading maneuver chart data...
Computing Atmospheric mass density...
Loading historical data...
Loading historical data...
Loading historical data...
Loading historical data...
Loading historical data...
Loading historical data...
Loading historical data...

Documentation

Showing up to 5 results
|